When you browse on this site, cookies collect data to enhance your experience and personalize the content and advertising you see.
Visit our Privacy Policy to learn more. By continuing to use the site, you agree to this use of cookies and data.
EN

Hourly Weather Eppingen

Today, 3 July, Friday

Time Temperature Precipitation Wind Pressure Humidity
00:00 +16°C° 0 mm 2 mps 744 mmHg 83%
01:00 +15°C° 0 mm 2 mps 745 mmHg 86%
02:00 +15°C° 0 mm 2 mps 745 mmHg 88%
03:00 +14°C° 0 mm 2 mps 745 mmHg 89%
04:00 +14°C° 0 mm 2 mps 745 mmHg 91%
05:00 +15°C° 0 mm 2 mps 745 mmHg 86%
06:00 +16°C° 0 mm 2 mps 746 mmHg 82%
07:00 +17°C° 0 mm 3 mps 746 mmHg 77%
08:00 +18°C° 0 mm 3 mps 746 mmHg 70%
09:00 +19°C° 0 mm 3 mps 746 mmHg 64%
10:00 +21°C° 0 mm 3 mps 746 mmHg 57%
11:00 +21°C° 0 mm 3 mps 746 mmHg 54%
12:00 +22°C° 0 mm 4 mps 746 mmHg 50%
13:00 +23°C° 0 mm 4 mps 746 mmHg 47%
14:00 +25°C° 0 mm 4 mps 746 mmHg 47%
15:00 +25°C° 0 mm 4 mps 746 mmHg 46%
16:00 +25°C° 0 mm 4 mps 746 mmHg 46%
17:00 +24°C° 0 mm 3 mps 746 mmHg 51%
18:00 +24°C° 0 mm 3 mps 746 mmHg 56%
19:00 +23°C° 0 mm 2 mps 746 mmHg 61%
20:00 +20°C° 0 mm 2 mps 746 mmHg 65%
21:00 +18°C° 0 mm 2 mps 746 mmHg 70%
22:00 +17°C° 0 mm 2 mps 747 mmHg 74%
23:00 +16°C° 0 mm 2 mps 747 mmHg 78%

Tomorrow, 4 July, Saturday

Time Temperature Precipitation Wind Pressure Humidity
00:00 +15°C° 0 mm 2 mps 747 mmHg 82%
01:00 +15°C° 0 mm 2 mps 747 mmHg 85%
02:00 +14°C° 0 mm 2 mps 747 mmHg 86%
03:00 +14°C° 0 mm 2 mps 747 mmHg 88%
04:00 +14°C° 0 mm 2 mps 747 mmHg 89%
05:00 +15°C° 0 mm 2 mps 747 mmHg 85%
06:00 +16°C° 0 mm 2 mps 747 mmHg 80%
07:00 +17°C° 0 mm 2 mps 747 mmHg 76%
08:00 +18°C° 0 mm 2 mps 747 mmHg 70%
09:00 +20°C° 0 mm 3 mps 747 mmHg 64%
10:00 +21°C° 0 mm 3 mps 747 mmHg 59%
11:00 +22°C° 0 mm 3 mps 747 mmHg 55%
12:00 +24°C° 0 mm 3 mps 747 mmHg 52%
13:00 +25°C° 0 mm 3 mps 746 mmHg 49%
14:00 +26°C° 0 mm 4 mps 746 mmHg 48%
15:00 +26°C° 0 mm 4 mps 746 mmHg 48%
16:00 +26°C° 0 mm 4 mps 746 mmHg 48%
17:00 +25°C° 0 mm 4 mps 746 mmHg 53%
18:00 +24°C° 0 mm 3 mps 746 mmHg 58%
19:00 +22°C° 0 mm 3 mps 745 mmHg 63%
20:00 +21°C° 0 mm 3 mps 746 mmHg 67%
21:00 +20°C° 0 mm 3 mps 746 mmHg 70%
22:00 +19°C° 0 mm 3 mps 746 mmHg 74%
23:00 +19°C° 0 mm 3 mps 746 mmHg 75%

Day after tomorrow, 5 July, Sunday

Time Temperature Precipitation Wind Pressure Humidity
00:00 +19°C° 0 mm 3 mps 746 mmHg 76%
01:00 +19°C° 0 mm 3 mps 746 mmHg 77%
02:00 +18°C° 0.1 mm 3 mps 746 mmHg 79%
03:00 +18°C° 0.1 mm 3 mps 745 mmHg 82%
04:00 +18°C° 0.1 mm 3 mps 745 mmHg 84%
05:00 +18°C° 0.1 mm 3 mps 745 mmHg 85%
06:00 +18°C° 0.1 mm 3 mps 745 mmHg 86%
07:00 +18°C° 0.1 mm 3 mps 745 mmHg 87%
08:00 +18°C° 0 mm 4 mps 745 mmHg 85%
09:00 +19°C° 0 mm 4 mps 745 mmHg 82%
10:00 +20°C° 0 mm 4 mps 745 mmHg 79%
11:00 +21°C° 0 mm 5 mps 745 mmHg 77%
12:00 +21°C° 0 mm 5 mps 745 mmHg 74%
13:00 +22°C° 0 mm 5 mps 745 mmHg 71%
14:00 +23°C° 0 mm 6 mps 745 mmHg 68%
15:00 +24°C° 0 mm 6 mps 745 mmHg 64%
16:00 +26°C° 0 mm 6 mps 744 mmHg 61%
17:00 +24°C° 0 mm 6 mps 744 mmHg 64%
18:00 +23°C° 0 mm 5 mps 744 mmHg 68%
19:00 +23°C° 0 mm 4 mps 744 mmHg 71%
20:00 +22°C° 0 mm 4 mps 744 mmHg 76%
21:00 +20°C° 0 mm 3 mps 744 mmHg 82%
22:00 +19°C° 0 mm 3 mps 744 mmHg 87%
23:00 +19°C° 0 mm 3 mps 744 mmHg 89%

6 July, Monday

Time Temperature Precipitation Wind Pressure Humidity
00:00 +18°C° 0 mm 3 mps 743 mmHg 90%
01:00 +18°C° 0 mm 3 mps 743 mmHg 92%
02:00 +18°C° 0 mm 3 mps 743 mmHg 92%
03:00 +18°C° 0 mm 3 mps 743 mmHg 91%
04:00 +18°C° 0 mm 3 mps 742 mmHg 91%
05:00 +18°C° 0.1 mm 4 mps 742 mmHg 88%
06:00 +19°C° 0.1 mm 4 mps 742 mmHg 85%
07:00 +19°C° 0.1 mm 5 mps 742 mmHg 81%
08:00 +19°C° 0.2 mm 5 mps 743 mmHg 82%
09:00 +17°C° 0.2 mm 5 mps 743 mmHg 82%
10:00 +16°C° 0.2 mm 5 mps 743 mmHg 83%
11:00 +17°C° 0 mm 5 mps 743 mmHg 72%
12:00 +20°C° 0 mm 6 mps 743 mmHg 62%
13:00 +22°C° 0 mm 7 mps 744 mmHg 52%
14:00 +22°C° 0 mm 7 mps 744 mmHg 49%
15:00 +22°C° 0 mm 6 mps 744 mmHg 47%
16:00 +22°C° 0 mm 6 mps 745 mmHg 45%
17:00 +21°C° 0 mm 5 mps 745 mmHg 49%
18:00 +20°C° 0 mm 5 mps 745 mmHg 54%
19:00 +19°C° 0 mm 4 mps 746 mmHg 58%
20:00 +17°C° 0 mm 3 mps 747 mmHg 63%
21:00 +16°C° 0 mm 3 mps 747 mmHg 67%
22:00 +14°C° 0 mm 2 mps 748 mmHg 71%
23:00 +13°C° 0 mm 2 mps 748 mmHg 75%

7 July, Tuesday

Time Temperature Precipitation Wind Pressure Humidity
00:00 +13°C° 0 mm 2 mps 748 mmHg 78%
01:00 +12°C° 0 mm 2 mps 748 mmHg 82%
02:00 +11°C° 0 mm 1 mps 748 mmHg 84%
03:00 +11°C° 0 mm 1 mps 749 mmHg 86%
04:00 +10°C° 0 mm 1 mps 749 mmHg 89%
05:00 +11°C° 0 mm 1 mps 749 mmHg 84%
06:00 +13°C° 0 mm 1 mps 749 mmHg 80%
07:00 +14°C° 0 mm 1 mps 749 mmHg 76%
08:00 +15°C° 0 mm 1 mps 749 mmHg 69%
09:00 +18°C° 0 mm 1 mps 749 mmHg 62%
10:00 +19°C° 0 mm 1 mps 749 mmHg 56%
11:00 +20°C° 0 mm 1 mps 749 mmHg 52%
12:00 +20°C° 0 mm 2 mps 748 mmHg 49%
13:00 +21°C° 0 mm 2 mps 748 mmHg 45%
14:00 +21°C° 0 mm 2 mps 748 mmHg 44%
15:00 +21°C° 0 mm 2 mps 748 mmHg 42%
16:00 +23°C° 0 mm 2 mps 748 mmHg 40%
17:00 +21°C° 0 mm 2 mps 748 mmHg 45%
18:00 +20°C° 0 mm 2 mps 748 mmHg 50%
19:00 +21°C° 0 mm 1 mps 748 mmHg 55%
20:00 +19°C° 0 mm 1 mps 748 mmHg 59%
21:00 +16°C° 0 mm 1 mps 748 mmHg 62%
22:00 +14°C° 0 mm 1 mps 748 mmHg 65%
23:00 +14°C° 0 mm 1 mps 748 mmHg 68%

8 July, Wednesday

Time Temperature Precipitation Wind Pressure Humidity
00:00 +13°C° 0 mm 1 mps 748 mmHg 71%
01:00 +12°C° 0 mm 1 mps 748 mmHg 73%
02:00 +12°C° 0 mm 1 mps 748 mmHg 75%
03:00 +12°C° 0 mm 1 mps 748 mmHg 76%
04:00 +11°C° 0 mm 1 mps 748 mmHg 78%
05:00 +13°C° 0 mm 1 mps 748 mmHg 74%
06:00 +14°C° 0 mm 1 mps 748 mmHg 70%
07:00 +16°C° 0 mm 1 mps 748 mmHg 66%
08:00 +19°C° 0 mm 1 mps 748 mmHg 60%
09:00 +20°C° 0 mm 1 mps 748 mmHg 54%
10:00 +22°C° 0 mm 1 mps 748 mmHg 48%
11:00 +23°C° 0 mm 1 mps 748 mmHg 45%
12:00 +24°C° 0 mm 1 mps 747 mmHg 42%
13:00 +25°C° 0 mm 1 mps 747 mmHg 39%
14:00 +25°C° 0 mm 1 mps 747 mmHg 39%
15:00 +25°C° 0 mm 2 mps 747 mmHg 39%
16:00 +26°C° 0 mm 2 mps 746 mmHg 39%
17:00 +25°C° 0 mm 2 mps 746 mmHg 45%
18:00 +24°C° 0 mm 2 mps 746 mmHg 51%
19:00 +23°C° 0 mm 2 mps 746 mmHg 57%
20:00 +20°C° 0 mm 2 mps 746 mmHg 61%
21:00 +18°C° 0 mm 2 mps 746 mmHg 65%
22:00 +17°C° 0 mm 2 mps 746 mmHg 69%
23:00 +16°C° 0 mm 2 mps 746 mmHg 70%
Show more